Theta_e
293 293 293 293 293 292 292 293 293 292 292 291 291 290 291 292 293 293 292 292 292 292 292 292 292 292 291 291 291 291 290 290 291 291 291 291 291 291 291 291 290 290 290 290 289 289 289 289 289 289 288 288 287 288 287 288 288 287 286 287 287 287
295 294 294 293 293 293 293 292 292 291 291 291 291 291 291 290 290 291 290 291 291 291 291 291 291 291 291 291 291 290 290 290 290 290 290 290 291 290 290 290 289 289 289 289 289 288 288 288 288 288 288 288 287 287 287 287 287 286 286 286 286 286
295 295 294 294 293 293 292 292 291 291 291 291 291 290 290 291 291 291 291 291 291 291 290 291 291 291 291 291 290 290 289 289 290 290 290 290 289 290 289 289 289 289 289 288 288 287 287 287 287 288 288 287 287 287 287 286 286 285 285 285 285 286
295 295 295 294 293 293 292 293 292 292 291 292 292 291 291 291 291 291 292 292 291 291 291 290 291 291 290 290 290 289 289 289 289 290 290 289 289 289 289 289 289 289 288 287 287 287 287 287 287 287 287 286 286 286 286 286 286 285 285 285 284 285
294 294 294 293 293 293 294 293 293 293 293 293 293 292 292 292 292 292 292 291 291 291 291 291 290 290 290 289 289 289 289 289 290 290 289 289 289 289 289 288 288 287 287 287 287 287 286 287 287 287 287 286 286 285 285 285 285 284 284 283 283 283
292 292 292 293 293 293 293 294 293 293 293 293 292 292 292 292 293 292 292 291 291 291 290 290 290 290 289 289 289 289 289 289 289 289 289 289 288 288 288 288 287 287 287 286 286 286 286 286 287 286 286 286 285 285 284 284 284 284 283 283 283 283
290 290 291 291 292 292 292 292 292 292 292 293 292 293 293 293 293 292 292 291 290 290 290 290 290 289 289 289 289 289 289 289 289 289 288 288 287 287 287 287 287 287 287 286 286 286 286 286 286 285 285 285 285 284 284 283 283 283 283 283 282 283
290 290 290 290 291 291 291 291 292 292 292 292 293 292 292 293 292 292 291 290 289 289 289 289 289 289 289 289 289 289 289 289 288 288 288 287 287 287 287 287 287 287 286 286 286 286 286 286 285 285 284 284 284 284 283 283 283 283 282 282 282 282
290 291 291 291 290 290 291 291 292 292 292 292 293 293 292 292 291 291 290 290 289 288 288 289 289 289 289 288 288 288 288 288 287 287 286 287 286 286 286 286 286 286 286 286 286 285 285 285 285 284 284 284 283 283 282 282 282 282 282 282 282 282
290 291 291 291 291 291 291 292 291 291 292 292 293 293 292 292 290 290 289 289 288 288 289 289 289 288 288 288 288 287 287 287 287 287 287 287 286 286 286 286 286 286 286 285 285 285 285 284 284 284 283 283 282 282 281 281 281 281 281 281 281 281
290 290 291 291 291 291 291 291 291 291 290 290 291 291 291 291 289 289 289 288 288 288 289 289 288 288 287 287 287 286 286 286 287 287 286 286 286 286 286 286 286 285 284 284 284 284 284 284 284 283 283 282 281 281 281 281 281 280 280 280 280 280
290 290 291 291 291 291 290 291 291 291 291 291 291 290 291 290 289 288 288 288 288 288 288 288 287 287 287 286 286 286 286 286 286 286 286 286 286 286 286 285 285 284 284 283 283 283 283 283 283 283 282 283 281 281 281 280 280 280 279 279 279 279
290 290 289 290 291 291 291 291 291 291 290 290 290 290 290 289 288 288 288 287 288 288 287 287 286 286 286 286 286 286 286 286 286 285 285 285 285 285 285 284 284 283 283 283 282 282 282 281 281 281 282 282 282 281 280 279 279 279 279 279 278 278
290 290 290 291 291 291 290 291 290 290 289 290 290 290 289 288 288 287 287 287 287 287 286 286 286 286 286 286 286 286 285 285 285 285 285 284 284 284 284 283 283 282 282 282 281 280 280 280 281 281 281 281 281 281 280 279 279 278 278 278 278 278
291 291 290 290 290 290 291 291 289 289 290 289 289 289 288 287 287 287 287 287 286 286 286 286 285 285 285 285 285 285 285 285 284 284 284 284 284 283 282 282 281 281 281 280 279 279 279 279 280 281 281 281 281 281 280 279 278 278 277 277 277 277
291 291 290 289 290 290 290 289 288 289 289 288 288 287 287 286 286 286 286 286 286 286 286 285 285 285 285 285 285 285 284 284 284 284 284 283 282 281 281 281 280 279 279 279 278 278 278 278 279 280 280 280 280 280 280 278 277 277 277 277 277 276
290 290 289 289 289 289 289 289 289 288 287 288 287 287 286 286 286 286 286 285 286 286 285 285 285 284 284 284 284 284 284 284 283 283 282 281 280 280 279 279 278 278 278 278 278 277 277 277 279 279 279 279 280 280 279 277 276 276 276 276 276 275
289 289 288 289 289 289 288 288 288 287 287 287 286 286 286 286 285 285 285 285 285 285 285 284 284 284 284 284 284 283 283 282 282 280 280 280 279 279 279 278 278 278 277 277 277 276 276 277 278 278 279 279 279 279 276 276 275 275 275 275 275 275
288 288 288 288 288 287 287 288 287 286 286 286 286 286 285 285 284 285 285 285 285 285 284 284 283 283 283 283 283 282 281 280 279 279 279 278 278 277 277 277 277 277 277 276 276 275 275 275 277 278 278 278 278 277 275 275 275 274 274 274 275 275
289 288 287 286 286 287 287 287 286 285 285 285 285 285 284 284 284 285 285 284 284 284 284 284 283 283 282 282 281 280 279 279 279 278 278 277 276 276 276 276 276 276 276 275 275 275 274 274 275 277 277 277 277 277 275 274 274 274 274 274 275 275
288 287 286 285 285 287 287 286 285 284 284 285 285 284 284 284 285 285 284 284 284 283 283 283 283 282 281 280 279 278 277 277 277 277 277 277 276 276 276 276 275 275 275 275 275 274 274 274 274 276 276 276 277 277 275 274 274 273 273 274 274 274
286 285 285 286 286 287 286 285 285 284 284 284 284 283 284 284 285 284 284 283 283 283 283 282 281 280 279 277 277 277 277 277 276 276 275 275 275 275 275 274 274 273 273 274 274 274 273 273 273 274 276 276 277 277 275 275 274 273 273 273 272 272
286 285 285 286 286 286 285 285 284 284 284 284 283 283 284 285 284 283 283 283 282 282 282 281 279 277 277 277 276 276 276 276 275 275 274 274 274 274 273 273 273 272 272 273 273 273 273 273 273 273 276 276 277 277 277 274 274 273 272 272 272 273
286 286 286 286 286 285 285 284 283 283 284 283 283 284 285 284 283 283 282 282 281 280 279 278 277 276 276 276 275 274 274 275 275 274 274 273 272 272 271 271 271 271 271 272 272 272 272 273 273 273 274 276 277 277 278 274 273 274 273 272 272 272
285 285 285 286 285 285 284 283 282 283 283 282 283 284 283 282 282 281 281 280 279 277 276 276 275 275 275 274 274 273 272 273 273 272 272 272 271 271 270 271 271 270 270 270 271 272 272 273 273 274 273 275 277 277 277 276 275 276 274 272 272 272
285 285 285 285 285 284 284 283 282 283 282 282 284 282 281 280 280 279 278 277 276 275 275 274 274 274 274 273 273 272 272 271 271 271 271 270 270 269 269 270 270 270 269 269 269 270 271 272 272 273 274 274 275 275 276 276 276 277 274 273 272 273
284 284 284 284 284 284 283 283 282 282 281 283 282 281 279 277 276 276 275 275 275 274 274 273 273 273 273 272 272 271 271 270 270 269 270 269 269 269 269 269 269 268 268 268 268 269 271 271 272 272 273 272 272 274 275 275 276 276 277 273 273 274
283 283 283 284 284 284 283 283 283 281 282 282 281 280 277 275 273 273 272 272 273 273 273 272 272 272 272 271 271 271 271 270 269 269 269 269 269 268 268 268 268 268 268 268 269 269 270 271 271 270 270 271 271 271 273 275 275 274 274 274 274 275
283 283 283 283 284 284 283 283 282 282 281 280 279 278 276 274 272 272 272 271 271 272 272 271 271 271 271 271 271 270 270 270 269 269 268 268 268 268 268 267 267 268 268 268 268 269 269 268 268 268 268 269 269 270 271 272 272 273 274 273 273 273
283 283 283 283 284 284 283 282 281 280 279 278 276 275 274 273 272 272 271 271 271 272 271 270 270 269 270 270 269 269 269 269 269 268 267 267 267 267 267 267 267 267 267 268 268 267 267 266 267 267 267 268 269 270 271 271 272 272 272 272 272 272
283 283 282 282 283 283 282 281 279 278 277 275 274 274 273 272 271 272 272 272 272 271 271 270 270 269 269 268 269 269 269 268 267 267 267 269 269 269 268 267 268 269 269 268 267 265 265 265 265 266 270 270 273 271 271 271 271 272 272 273 275 272
282 281 281 282 282 282 281 279 278 276 275 274 273 273 272 271 272 272 272 271 271 270 270 269 269 269 268 268 268 267 267 268 269 269 268 267 269 270 272 272 269 269 268 267 267 266 265 265 266 271 273 273 274 274 274 275 275 276 273 274 274 271
282 281 280 281 281 280 279 277 276 274 274 274 273 272 271 271 271 271 271 270 270 269 268 268 268 268 268 267 267 267 266 266 267 269 270 270 269 270 272 272 272 271 270 267 265 267 270 271 271 272 272 273 273 274 274 274 275 275 274 274 270 267
281 281 281 282 281 279 277 275 274 273 272 272 271 271 270 269 270 270 269 269 268 268 268 268 267 267 267 267 267 266 265 264 264 265 268 270 270 270 270 270 269 269 269 269 268 267 266 268 271 272 272 272 273 273 274 274 274 273 273 273 271 266
282 282 282 281 278 277 276 274 272 272 271 270 270 269 268 267 267 267 267 267 267 267 267 267 266 266 266 265 264 264 264 264 264 263 264 267 268 268 268 267 267 268 268 268 269 269 269 269 270 271 271 272 272 273 273 274 273 271 272 271 266 265
282 281 280 278 276 275 274 272 270 270 269 268 268 267 266 266 266 266 266 266 265 266 266 266 266 266 265 265 265 264 264 264 264 264 264 263 262 262 263 265 266 266 267 267 268 268 269 269 270 270 271 271 272 272 273 272 268 270 270 269 265 264
280 279 277 275 274 273 271 269 268 268 267 267 266 266 266 265 265 266 265 264 264 265 265 265 266 265 264 264 264 264 264 264 264 264 262 261 260 259 259 260 261 263 265 263 265 266 268 269 269 270 271 271 271 272 272 269 265 265 265 265 265 264
277 277 275 274 273 271 269 268 268 267 265 265 265 265 265 265 265 265 266 265 265 264 265 265 264 264 264 264 264 264 264 264 263 262 261 260 260 259 259 260 261 261 262 263 264 266 267 267 268 269 270 270 270 271 270 264 263 263 263 263 264 263
Wind_Speed
9 9 10 9 9 9 9 8 7 6 7 8 8 11 11 11 9 9 8 9 8 7 10 11 10 10 10 10 11 10 10 11 10 10 10 10 10 10 9 9 9 9 9 9 11 10 11 10 10 10 10 11 11 11 12 12 12 13 14 13 13 13
9 9 9 9 9 8 7 8 7 9 9 8 9 9 10 10 11 10 11 10 9 10 10 11 11 11 11 11 10 10 11 11 11 11 11 11 9 10 10 10 10 10 11 10 11 11 11 11 11 11 12 11 11 12 12 13 14 15 16 15 14 12
9 9 8 8 8 8 8 8 9 9 8 9 10 10 11 11 11 10 10 9 10 11 12 12 12 13 11 11 11 11 11 11 10 11 10 9 10 10 10 10 11 11 10 11 11 12 11 12 12 11 11 11 13 13 14 15 15 16 15 15 16 15
9 9 7 7 7 9 9 8 7 8 9 8 8 8 9 10 11 9 10 9 9 11 12 12 12 11 10 11 11 11 11 11 10 10 9 10 10 9 10 11 9 9 11 11 12 12 12 12 13 12 11 12 13 14 11 12 15 16 16 16 16 17
9 8 9 10 10 10 9 8 8 8 9 9 8 8 10 9 10 9 8 9 10 12 11 11 11 10 11 12 11 11 11 10 10 9 9 9 9 9 9 10 10 11 11 12 12 12 12 12 12 11 12 12 14 15 15 14 16 16 17 18 18 18
8 8 9 9 8 8 8 8 7 7 7 8 7 9 10 9 8 7 8 9 10 11 11 11 11 11 11 11 10 11 11 10 9 8 9 9 8 9 9 10 11 11 11 11 12 11 11 12 12 12 12 14 14 15 17 17 17 17 18 19 19 19
8 8 8 8 8 7 7 7 7 7 7 6 7 8 8 8 7 7 8 8 10 11 10 11 10 10 11 11 9 11 10 9 9 8 9 9 9 10 10 10 9 10 10 10 11 12 12 12 13 13 14 14 14 16 17 18 18 18 19 19 19 18
6 7 8 7 7 7 7 7 7 7 6 8 7 7 8 8 6 7 7 8 8 9 10 10 10 10 10 10 9 10 9 9 9 9 8 9 10 10 9 10 9 9 11 11 12 12 12 12 13 13 14 15 16 16 17 17 18 18 18 19 18 18
8 7 7 7 7 7 6 6 6 6 7 8 8 6 6 7 6 7 7 7 8 9 9 9 9 9 9 9 8 8 8 9 9 9 10 9 9 10 10 10 10 10 10 11 12 12 13 13 13 13 14 15 16 17 17 18 18 18 17 17 20 21
8 7 7 7 6 6 6 6 6 7 7 7 7 6 5 4 5 7 7 7 8 8 8 8 8 8 8 8 8 8 9 9 9 9 9 9 9 9 10 10 11 11 10 11 12 12 12 13 13 13 14 15 15 16 17 18 18 18 18 19 20 21
7 8 7 7 6 7 7 6 6 6 6 7 7 6 6 5 6 7 7 7 8 8 7 7 7 7 8 8 8 8 9 9 9 9 9 8 9 8 9 10 11 12 13 13 13 13 12 12 11 11 12 14 16 16 17 18 18 19 19 21 20 19
7 8 7 7 7 7 6 6 6 5 5 6 6 6 6 4 6 7 7 7 7 7 7 8 8 8 8 8 8 8 8 8 9 8 9 9 9 10 10 11 11 12 13 13 13 12 11 10 10 12 20 20 16 18 17 18 18 19 20 20 21 20
7 7 7 8 7 6 6 6 6 5 6 6 6 6 5 4 6 7 7 8 7 7 7 7 7 7 8 8 8 8 9 9 8 9 9 9 10 11 11 11 12 12 12 13 13 13 11 10 10 18 22 23 26 20 18 18 19 19 19 20 20 21
7 7 8 7 7 7 6 6 5 5 6 6 6 6 6 6 6 7 7 8 7 7 8 7 8 8 8 8 9 9 9 9 9 10 10 10 11 11 11 12 12 13 12 11 13 13 12 11 14 21 23 24 25 23 19 17 17 18 18 19 20 19
7 8 7 6 6 6 7 5 5 6 6 6 7 6 6 6 7 7 7 7 7 8 7 7 8 8 8 8 9 8 9 9 10 10 10 11 11 11 12 13 13 13 12 12 13 13 13 12 16 21 24 24 25 26 23 16 17 17 18 20 20 20
6 6 6 7 8 7 7 6 6 6 6 5 6 6 6 6 7 6 7 8 7 8 7 7 8 9 9 9 9 9 9 9 9 10 10 11 11 12 13 13 13 12 12 12 13 13 13 14 15 21 23 24 25 26 24 17 18 18 18 19 19 17
8 8 7 6 6 6 5 7 5 4 5 5 6 6 6 6 7 7 7 8 8 8 7 8 8 9 9 9 9 8 9 9 9 11 11 11 11 12 12 12 12 11 11 12 12 13 13 12 18 21 24 25 26 26 23 17 16 16 17 17 17 18
8 8 8 7 6 6 6 7 4 4 6 5 5 6 5 6 7 8 7 8 8 8 8 8 9 9 9 9 9 9 9 9 10 12 12 11 11 11 11 11 11 12 12 12 13 13 14 14 19 22 24 25 25 26 17 15 16 17 17 17 17 18
7 7 6 7 7 7 7 5 4 5 6 6 6 6 6 7 7 8 7 7 7 7 7 8 8 8 8 8 9 9 10 11 12 12 10 12 11 11 11 11 11 10 11 13 14 14 14 14 18 23 23 23 24 20 15 16 15 16 17 17 17 18
7 6 5 7 8 8 6 5 5 5 6 7 6 6 7 7 8 7 7 7 7 7 7 7 7 8 8 8 9 10 10 11 10 10 10 11 12 12 12 12 11 11 10 13 15 14 15 15 19 23 22 23 24 21 16 15 15 17 17 17 18 16
8 7 6 6 9 8 6 5 5 5 6 6 6 6 7 7 7 7 7 7 7 7 7 7 7 7 8 9 9 9 11 11 10 10 10 10 11 12 11 11 11 11 11 12 14 16 16 15 17 20 20 23 23 20 15 15 15 16 16 16 18 18
8 7 7 7 8 6 6 5 5 6 6 7 6 6 7 7 6 6 6 6 6 6 6 6 6 7 8 9 10 9 10 10 10 10 11 11 10 11 11 11 11 13 13 13 13 12 13 15 15 16 22 22 24 24 17 16 15 17 18 17 18 18
6 7 7 7 7 6 5 4 5 6 6 6 6 7 6 6 6 6 5 5 6 6 6 6 6 8 8 8 9 9 9 9 10 11 11 12 11 11 12 13 12 12 13 12 12 12 13 12 15 17 23 22 24 26 24 15 17 17 17 17 17 14
7 7 6 6 6 5 4 4 6 6 6 6 7 7 6 5 5 5 5 6 6 6 6 6 7 6 6 7 7 9 9 9 9 10 11 10 11 13 13 12 11 12 12 11 13 13 14 13 17 16 19 23 26 26 27 18 17 19 18 17 14 17
7 7 7 5 5 4 3 4 7 7 6 6 7 6 5 5 5 5 5 5 5 5 6 6 7 7 6 6 7 8 9 9 9 10 10 11 12 13 14 13 12 11 12 12 12 12 13 14 14 18 19 24 25 27 27 28 23 27 19 17 18 18
8 8 6 5 5 4 3 4 6 6 5 8 5 3 3 3 4 3 4 4 4 5 5 6 6 6 6 6 7 7 9 9 9 9 9 10 11 11 12 10 10 12 12 12 13 13 13 13 14 17 21 21 27 27 27 27 29 29 20 19 17 15
9 8 8 6 5 4 3 4 5 5 7 6 4 3 3 3 3 4 4 4 5 5 5 6 6 6 6 6 7 8 8 9 8 10 9 9 10 10 12 13 12 11 11 12 13 13 14 14 13 13 18 26 25 26 26 28 30 30 29 21 16 18
7 7 9 8 5 4 3 3 4 5 6 5 4 4 3 3 4 4 4 4 5 5 5 6 6 5 6 6 6 6 7 8 10 10 10 10 10 11 12 12 11 10 11 12 13 14 14 13 13 15 15 15 19 20 26 30 30 29 30 27 22 26
7 7 6 7 7 4 3 2 3 3 4 3 3 3 3 4 4 4 3 4 4 4 3 6 6 7 7 6 7 7 7 7 8 10 10 9 11 12 11 11 11 11 11 13 14 13 12 13 14 14 14 14 15 16 17 19 19 24 25 18 15 19
7 7 6 7 6 4 3 3 2 3 2 2 3 2 2 3 4 3 3 5 4 4 5 5 8 8 6 6 6 8 8 7 6 9 10 11 11 11 11 12 12 13 13 12 12 13 14 15 13 13 14 15 16 17 16 15 15 14 14 14 15 16
6 8 7 7 6 4 2 2 2 3 3 3 2 2 3 3 3 3 4 4 5 5 5 5 6 6 7 8 7 6 6 8 9 9 10 12 10 9 10 12 13 12 12 12 13 14 15 14 14 14 19 21 24 21 18 16 15 15 15 18 26 18
6 6 6 6 5 3 2 2 3 3 3 3 3 3 4 3 3 3 4 4 5 5 6 6 7 7 7 7 7 7 7 8 11 10 9 11 16 19 19 16 13 14 14 14 12 11 13 13 15 24 29 28 28 28 27 26 26 26 21 23 26 16
4 5 6 6 4 2 1 2 3 3 3 3 3 4 4 3 3 3 4 5 5 6 6 7 7 7 7 7 7 8 9 9 7 10 13 14 15 17 19 21 23 22 20 15 14 15 21 22 24 26 27 28 27 27 27 27 27 26 24 23 18 13
5 5 6 4 2 1 2 3 3 4 3 3 3 3 3 3 3 3 4 4 5 6 6 6 7 7 7 7 8 9 9 9 10 9 9 13 14 16 21 20 19 19 19 21 19 17 14 19 24 26 26 26 26 25 26 26 26 24 22 21 18 9
5 5 4 2 1 2 3 4 4 4 3 3 3 3 3 3 3 3 4 4 5 6 7 6 6 7 7 9 10 9 8 9 10 11 12 10 11 15 16 16 16 18 19 21 21 22 20 22 24 26 26 25 24 25 25 26 24 21 20 19 11 9
4 4 2 1 2 3 3 4 3 3 2 2 3 3 3 3 2 2 2 4 5 6 6 6 6 6 8 8 8 8 9 9 10 11 11 12 13 10 8 10 14 15 19 20 22 22 23 24 24 25 25 24 24 24 23 22 16 17 16 14 10 10
3 2 1 3 4 4 5 5 3 2 1 2 3 3 3 3 3 3 3 3 4 5 5 5 5 7 8 8 8 8 9 9 10 10 10 10 11 12 13 13 12 12 15 17 17 20 24 24 24 24 24 24 24 22 22 19 12 12 11 10 10 10
3 1 3 3 4 5 6 4 3 2 2 3 4 4 3 3 2 3 3 4 4 4 4 5 6 7 7 7 8 8 8 9 9 8 9 9 9 10 11 11 11 12 15 20 18 20 23 24 25 24 24 23 22 20 20 12 12 11 11 11 11 11
Wind_Direction
243 243 247 247 246 247 252 262 264 260 254 251 250 257 262 271 276 274 271 265 262 264 268 272 272 265 262 262 263 266 267 267 268 269 269 275 274 276 275 274 277 278 280 278 280 279 278 278 278 278 279 277 279 281 282 283 284 284 285 285 285 284
248 250 252 256 254 254 253 258 261 259 260 260 259 263 269 273 272 273 274 271 270 271 273 269 266 266 266 265 267 266 265 267 270 273 275 274 280 279 281 280 281 284 286 288 286 284 283 283 282 282 281 281 280 283 287 290 290 288 287 288 286 285
260 257 256 258 262 259 260 258 260 266 268 265 265 267 273 271 269 270 267 271 271 270 270 271 270 267 266 267 264 265 267 269 270 270 272 280 276 281 283 281 284 289 293 292 288 286 285 284 284 282 284 283 285 286 288 290 289 287 287 287 286 283
268 267 260 253 256 262 260 260 259 262 263 262 267 266 263 269 273 266 271 273 272 272 273 272 272 272 273 272 272 272 271 270 270 273 277 275 280 283 284 285 290 293 294 290 287 284 282 282 283 285 285 286 288 290 290 289 289 287 286 286 284 284
283 283 280 277 272 272 274 273 267 267 271 271 267 265 268 264 268 272 273 273 275 276 277 277 276 277 277 277 276 275 274 274 275 278 278 282 288 289 286 292 295 294 289 285 282 283 283 284 286 288 289 290 291 292 292 289 289 288 286 285 284 284
284 282 279 276 271 267 267 268 270 269 267 267 267 264 267 271 268 273 275 275 275 279 280 278 280 280 279 279 278 277 278 281 284 287 287 291 295 293 294 292 290 287 284 284 285 286 289 292 294 296 295 295 293 292 290 289 286 285 284 284 285 286
278 277 277 275 276 276 275 273 273 270 269 267 264 266 270 271 276 276 277 277 281 283 283 283 285 282 281 279 280 281 286 289 291 294 295 298 297 295 294 291 287 286 287 291 293 297 298 298 299 298 295 293 289 288 287 286 285 284 284 283 283 284
286 281 278 277 275 276 277 275 269 268 269 269 266 269 276 276 278 277 278 281 281 282 284 284 284 280 281 284 286 289 294 297 298 299 298 294 294 294 290 289 292 291 293 296 298 298 298 299 297 295 292 291 290 288 288 287 286 285 285 286 287 289
288 289 287 277 275 269 267 269 272 271 269 271 268 259 266 278 287 285 282 281 278 280 280 283 283 288 291 292 296 299 299 298 297 296 293 293 291 291 293 295 296 298 298 299 299 298 297 295 292 290 291 291 291 291 290 289 288 289 289 288 292 293
290 286 285 283 273 270 264 259 259 265 266 270 276 278 272 271 278 281 283 282 281 277 280 284 291 293 293 296 298 296 294 293 292 293 293 294 294 295 297 300 301 302 300 298 295 292 290 289 290 291 291 291 293 294 292 291 293 293 293 292 294 293
293 294 288 280 276 271 267 262 260 253 258 261 267 275 279 289 286 282 279 280 277 281 288 294 295 293 296 297 296 294 294 296 296 295 296 296 296 296 297 300 303 302 298 293 290 291 292 292 291 291 294 295 294 295 297 296 296 296 296 297 293 289
286 284 285 279 270 268 267 268 268 267 272 278 278 277 281 280 278 279 282 282 288 296 301 302 299 297 300 297 296 297 298 298 300 301 301 302 301 302 302 300 297 293 292 294 294 295 295 293 291 288 288 289 292 299 300 298 297 298 298 295 293 289
280 278 274 271 271 271 275 281 287 290 283 274 275 281 288 289 289 290 292 295 302 304 304 302 300 301 298 299 298 300 304 307 307 304 303 304 304 302 300 298 297 295 294 295 297 298 297 294 291 290 291 294 299 301 301 300 300 299 296 292 290 290
280 275 273 279 282 286 281 281 287 285 282 288 288 293 304 299 293 293 296 296 301 303 305 304 302 301 301 303 305 308 309 307 306 304 304 303 303 304 300 297 296 297 298 298 298 298 297 295 291 291 294 299 302 303 302 302 300 298 294 292 290 289
285 289 292 286 277 276 280 283 282 280 288 295 298 306 298 296 293 295 295 300 303 304 302 301 300 300 302 306 308 309 306 305 303 304 307 308 307 302 300 299 298 299 300 300 300 299 297 295 292 293 298 301 303 305 308 304 299 295 292 290 289 290
286 288 282 278 279 276 282 281 271 277 285 287 294 290 291 293 296 297 299 300 302 301 300 301 302 302 305 308 308 307 304 305 308 312 311 308 305 302 300 299 300 301 301 301 300 298 297 295 293 297 300 303 306 309 310 303 299 294 290 290 291 291
287 286 287 281 279 283 287 282 263 278 287 286 289 289 292 297 297 299 298 301 301 302 304 307 306 306 307 308 308 308 309 315 318 316 312 307 304 303 303 304 305 303 302 301 300 299 296 294 298 302 302 304 308 311 310 302 297 293 291 291 291 291
290 294 295 298 287 279 270 273 288 300 297 297 287 292 294 297 295 292 295 296 299 303 307 308 308 308 311 314 316 318 320 323 319 313 310 306 303 301 301 299 300 302 303 303 300 297 297 299 304 302 301 306 311 313 309 302 298 296 294 293 292 291
288 288 292 282 276 275 278 291 301 294 293 293 291 295 293 290 285 286 290 292 300 308 312 314 314 314 317 322 324 327 326 320 315 310 310 306 305 305 304 302 304 304 304 302 299 299 300 303 302 300 304 309 312 312 306 303 300 299 298 296 295 294
279 275 255 274 277 276 279 287 288 288 285 284 285 285 284 281 283 290 298 305 315 318 318 318 320 322 327 332 332 326 318 313 308 308 310 306 307 306 306 306 305 306 304 301 298 300 304 300 296 300 306 311 312 311 307 306 304 302 301 299 299 300
285 287 279 268 271 277 282 283 281 277 275 277 281 281 283 285 295 310 317 320 321 318 320 324 332 336 338 334 327 320 314 313 313 309 309 306 304 302 306 307 306 306 302 296 295 297 297 295 296 301 308 312 312 313 310 309 307 304 305 306 306 306
280 274 265 267 273 287 288 286 278 271 272 278 282 283 286 297 315 322 321 319 320 321 330 341 347 348 338 327 320 318 313 311 310 313 310 307 306 308 308 308 306 305 301 297 299 303 298 297 299 304 312 311 313 314 314 312 309 311 312 311 308 305
262 271 280 283 288 290 290 281 279 279 277 282 285 284 297 320 326 326 326 324 328 338 349 353 354 338 325 322 318 313 310 313 314 312 310 310 310 308 305 304 304 302 298 300 306 304 299 297 305 310 314 313 313 315 316 315 316 316 313 310 307 303
284 283 279 270 273 275 279 282 281 280 284 289 286 297 332 336 336 336 333 336 346 355 354 349 337 325 316 315 319 317 313 312 308 308 311 311 310 306 302 302 303 302 300 308 315 303 303 304 308 310 312 314 315 315 319 322 319 317 314 310 305 308
291 292 290 289 285 278 276 273 277 280 284 283 298 332 350 347 346 345 344 354 358 357 343 333 325 319 318 316 319 315 310 309 312 311 309 308 308 303 301 304 306 306 314 318 315 312 309 309 312 313 312 315 320 323 322 320 319 318 317 314 313 312
290 291 288 282 281 282 275 265 275 283 291 291 320 3 10 3 1 356 3 5 358 338 326 320 313 311 314 319 318 313 307 308 309 311 310 308 303 301 301 304 313 317 318 317 312 313 314 314 313 314 317 324 325 322 320 319 319 320 320 317 313 306
292 295 294 289 288 290 274 262 265 277 288 307 9 10 21 17 20 17 10 358 338 326 324 317 313 313 318 324 323 317 314 311 313 312 309 304 299 298 309 317 319 317 318 312 312 313 315 316 317 320 328 326 321 321 320 320 321 321 321 318 308 305
280 278 285 294 292 292 278 272 267 277 297 342 12 14 43 39 30 26 9 336 323 315 316 313 313 317 319 314 319 311 308 311 313 310 307 306 306 313 316 313 317 319 314 313 313 312 313 323 328 328 326 324 323 321 321 321 321 321 318 315 314 318
284 280 286 292 299 299 304 292 294 305 337 1 21 34 46 55 52 23 344 328 313 307 309 326 333 328 319 316 317 315 311 313 312 310 307 304 316 316 314 315 319 319 319 314 312 316 326 328 327 325 323 325 321 319 320 320 320 318 318 318 323 326
275 284 290 295 302 318 325 327 349 30 38 60 67 70 63 60 35 0 331 313 315 322 333 323 325 323 318 316 316 316 317 316 312 315 310 313 314 317 316 318 319 320 316 316 327 331 326 324 324 323 324 321 320 320 320 320 318 318 320 325 327 327
286 286 291 291 301 317 323 354 56 73 82 86 83 62 64 43 10 334 318 326 334 334 334 323 317 317 313 312 311 310 314 318 318 315 303 303 306 312 315 314 314 317 326 332 332 329 323 321 321 320 318 318 320 322 323 323 323 324 327 330 330 330
266 280 284 287 296 310 325 43 84 88 89 92 77 63 64 24 342 328 343 344 337 335 330 325 318 316 315 315 317 317 313 311 307 300 298 302 309 317 320 319 322 332 332 324 327 326 319 316 312 315 319 322 324 325 324 324 325 329 332 332 334 332
278 275 277 281 292 315 69 96 100 103 90 81 67 63 55 20 353 347 347 344 339 331 321 317 315 318 316 318 319 321 322 318 320 310 301 301 310 320 329 333 330 333 334 331 324 323 320 316 317 320 323 326 327 328 329 330 333 336 335 337 338 336
284 273 274 284 305 80 111 119 109 102 92 79 69 58 59 33 9 356 342 333 325 321 322 318 316 317 319 321 326 327 322 322 319 321 318 319 325 332 330 333 334 335 335 334 331 328 323 323 324 326 328 329 331 332 332 334 337 336 337 339 339 327
281 286 284 291 106 126 136 123 108 102 91 79 67 57 60 47 29 1 337 325 323 322 321 321 322 321 323 327 327 324 326 326 327 326 325 325 330 333 329 335 335 336 334 334 334 331 327 326 328 330 332 335 336 335 335 337 337 335 337 341 346 346
277 275 280 140 141 145 128 112 109 99 93 74 71 67 74 50 31 348 337 335 325 319 317 322 321 324 326 322 318 320 323 325 326 328 330 329 330 335 332 331 335 333 333 332 332 330 332 333 334 335 337 339 338 337 340 341 334 332 346 355 348 348
274 268 144 151 147 134 119 113 115 109 98 84 76 75 66 43 14 344 325 319 324 321 318 319 323 329 324 320 321 323 326 327 330 333 333 331 329 329 333 335 330 328 331 329 328 327 333 336 338 338 339 340 341 344 347 342 346 348 353 357 1 350
233 207 154 162 140 128 113 117 127 122 97 72 64 64 49 35 12 351 335 331 329 325 320 322 327 324 318 319 320 323 323 330 332 332 328 324 322 325 325 324 326 323 322 322 323 329 333 334 336 336 337 340 342 350 353 354 352 349 350 349 348 348